Theta_e
329 330 330 330 329 327 326 322 319 318 317 316 315 315 315 314 312 304 300 299 298 298 298 298 298 299 299
325 327 327 328 325 322 320 318 316 314 314 312 312 314 314 312 305 299 298 298 298 298 298 298 297 298 298
322 324 324 325 320 318 316 315 313 308 306 305 309 311 310 307 300 299 298 298 298 298 298 297 297 297 296
319 320 319 321 319 315 313 311 307 301 300 301 307 306 302 300 299 298 298 298 297 297 296 296 296 295 295
317 317 316 316 316 312 310 308 303 299 298 300 302 301 299 298 297 297 297 297 296 296 295 295 294 294 294
316 315 313 313 312 310 308 306 302 298 297 299 300 297 296 296 297 297 297 296 296 295 295 294 293 293 293
316 314 312 310 310 307 306 304 300 297 297 297 297 296 296 296 296 296 296 296 296 295 294 294 294 293 293
317 314 311 309 308 307 305 302 299 298 297 297 296 296 296 296 296 296 296 296 295 294 294 294 294 293 293
317 315 312 308 307 306 304 300 299 298 297 297 296 296 295 295 295 294 295 294 294 294 294 293 293 292 292
315 315 313 309 306 305 303 298 298 298 297 297 296 296 295 294 293 293 293 294 294 295 295 294 294 293 292
311 312 312 310 305 303 302 298 298 298 297 297 296 295 294 293 293 293 293 293 294 294 294 293 293 291 292
305 306 306 306 304 302 300 298 298 298 297 296 295 295 294 293 292 292 293 293 293 293 293 293 291 291 291
301 301 300 301 302 301 299 297 298 297 297 296 295 294 294 293 293 292 292 292 292 292 293 292 291 291 291
299 299 299 299 298 300 299 297 297 297 296 296 295 294 293 292 292 292 292 291 291 291 291 289 288 289 291
298 297 298 298 297 296 296 297 297 297 296 295 295 294 293 292 292 292 292 292 292 289 290 291 286 288 286
298 297 297 297 296 296 296 297 297 297 296 295 294 293 293 292 291 291 291 291 292 291 288 289 289 289 285
Wind_Speed
22 23 23 22 20 19 18 16 14 13 13 11 11 12 11 11 10 8 7 5 4 5 5 5 5 6 6
25 24 23 23 22 21 20 18 17 17 15 14 15 13 13 12 9 7 5 4 3 4 5 5 5 5 5
27 27 26 25 25 23 22 22 22 18 18 16 17 15 14 12 9 6 4 3 3 4 5 5 4 4 4
29 29 29 28 27 26 25 24 21 19 18 18 19 16 14 11 8 6 5 5 4 4 5 4 4 5 5
32 32 32 31 30 28 28 25 23 21 21 21 20 18 15 12 9 8 7 6 4 4 4 5 5 5 5
34 35 34 34 33 32 30 27 26 25 23 22 20 18 15 12 10 9 7 5 4 5 5 5 5 5 6
38 37 37 37 36 34 32 30 28 27 25 23 22 19 16 14 12 9 7 5 3 4 5 6 6 7 8
45 43 42 41 39 36 34 33 31 29 27 26 24 21 19 16 13 10 8 6 4 3 3 4 5 7 8
50 48 46 44 41 38 36 34 33 31 29 28 26 24 21 18 15 13 9 7 4 2 2 5 6 7 5
52 52 51 48 44 42 39 37 35 33 31 30 28 25 22 19 16 14 11 9 5 1 2 5 7 8 4
49 51 51 50 47 45 42 40 37 35 34 32 30 26 24 22 20 16 14 10 6 2 2 4 7 5 6
44 44 45 46 47 45 43 41 38 37 35 34 31 28 27 24 22 19 14 10 6 2 1 3 5 7 8
42 42 38 47 49 46 46 43 41 40 38 36 34 32 30 28 24 21 17 13 7 3 3 5 8 11 11
43 41 28 35 41 48 49 46 44 42 39 38 37 36 33 31 27 25 22 16 8 6 4 4 2 2 4
38 34 28 26 23 38 42 45 46 44 42 41 39 38 36 34 33 30 26 19 13 8 7 5 2 3 1
41 41 40 32 25 37 41 49 49 47 46 43 41 40 38 36 33 30 26 21 17 14 10 8 7 7 3
Wind_Direction
198 199 204 198 192 183 180 178 175 170 165 158 150 141 133 126 122 118 109 96 70 50 41 28 11 14 13
199 201 194 199 190 186 186 185 184 173 170 166 153 148 143 139 138 128 114 97 62 43 35 28 13 8 10
202 200 193 197 194 192 192 193 191 187 183 173 161 162 154 153 154 143 130 99 59 43 35 22 18 20 16
206 203 200 200 200 198 199 201 195 190 185 176 172 170 169 174 171 161 149 124 106 84 63 43 26 23 12
209 206 204 204 205 204 205 203 198 192 187 186 186 186 182 179 168 156 145 135 114 85 63 45 31 21 8
214 211 209 207 207 207 208 205 202 196 194 192 191 189 185 183 180 171 158 136 104 70 49 34 25 11 5
216 216 214 213 211 211 210 208 205 203 201 197 196 195 193 191 186 180 165 134 95 64 42 26 9 357 355
218 218 218 216 216 215 214 212 209 209 206 204 201 200 199 195 191 184 171 153 136 98 57 22 356 346 349
221 221 220 220 218 218 217 214 212 209 208 209 207 204 201 197 190 183 172 164 151 115 47 17 355 353 6
224 222 222 222 220 221 218 214 212 212 212 211 210 207 202 197 191 186 177 173 170 154 10 359 344 350 56
222 222 223 224 222 221 219 216 214 214 214 214 211 206 203 200 196 191 188 190 181 165 24 356 357 56 100
217 216 220 222 223 222 221 217 217 216 214 214 212 208 206 203 198 193 193 188 184 169 69 41 60 103 107
202 200 208 213 218 219 221 219 218 217 215 214 211 209 207 206 202 198 191 186 169 160 131 89 77 132 95
203 201 201 204 215 217 217 218 218 217 216 215 212 210 208 204 202 200 195 185 173 158 148 113 61 133 190
204 196 198 199 208 211 216 217 216 217 217 216 214 213 210 209 206 203 201 197 170 160 165 148 109 214 320
205 198 193 196 194 209 208 213 215 215 215 214 214 213 213 211 210 208 204 202 189 173 157 171 171 155 168